Back to catalog

KUIPER-00604

AliveCommunicationsLEO
NORAD 69769·PAYLOAD·🇺🇸 United States

Launched Jul 2, 2026 from Cape Canaveral Space Force Station

Loading…

Next Passes (next 24 hours)

TLE

FreshSource: CelesTrak SupGP

Epoch: Sep 14, 2026, 15:05 UTC

1 69769C 26151G   26257.62893519  .00002176  00000+0  28542-3 0  2573
2 69769  51.9008 255.1558 0000621  30.2965 217.8021 14.79840543    14

Track KUIPER-00604 in real time with AllMySat

Download on the App Store